Weather in Lyakhovichi

Belarus     53°02′22″N   26°15′47″E
temp.,
°C
wind,
m/s
gust,
m/s
humid.,
%
clouds,
%
prec.,
mm/h
press.,
hPa
HPBL,
m
4 july, mon
mon400:00+17nne22917 0.0 101827
03:00+17ene2293100 0.0 101828
06:00+17ese1291100 0.0 101818
09:00+21sse22725 0.0 1017355
12:00+25s23560 0.0 10161174
15:00+27sse125123 0.0 10151649
18:00+23sw3476100 0.4 101576
21:00+21wnw238465 0.6 101533
5 july, tue
tue500:00+18nw229198 0.0 101516
03:00+17wnw229253 0.0 101627
06:00+17wnw22929 0.0 101617
09:00+21nw237785 0.0 1017364
12:00+24w3364100 0.4 1017934
15:00+25nw5561100 0.9 10171280
18:00+22nw5773100 0.7 1017435
21:00+19nnw4882100 0.7 1017215
6 july, wed
wed600:00+18n4875100 0.0 1017263
03:00+15n4994100 1.2 1017258
06:00+15n4995100 1.4 1017318
09:00+13nnw4897100 3.4 1017353
12:00+13n5897100 7.1 1018310
15:00+13n3695100 7.7 1018329
18:00+17n23701 0.0 1017702
21:00+15ese1181100 0.0 101711
7 july, thu
thu700:00+13ssw2291100 0.0 101737
03:00+12wsw2293100 0.0 101723
06:00+12wsw009436 0.0 101711
09:00+15wsw1287100 0.0 1018224
12:00+19s237159 0.1 1017929
15:00+19nw447647 1.1 1016411
18:00+20nnw3567100 0.1 1017485
21:00+17nnw117215 0.2 101611
8 july, fri
fri800:00+13ene117646 0.0 101710
03:00+12w11815 0.0 101710
06:00+13wsw118126 0.0 101810
09:00+17nw117270 0.0 1018209
12:00+21nnw235515 0.0 10181117
15:00+22nw33535 0.0 10181493
18:00+21nnw336498 0.1 1018619
21:00+18nnw227438 0.1 101814